Weather History for KLAR - October, 2014

Change the Weather History Date:

Saturday, October 18, 2014

  Actual Average Record
Temperature  
Mean Temperature 51 °F 41 °F  
Max Temperature 69 °F 55 °F 77 °F (1958)
Min Temperature 32 °F 28 °F 2 °F (2006)
Degree Days  
Heating Degree Days 14 24  
Month to date heating degree days 327 375  
Since 1 July heating degree days 778 900  
Cooling Degree Days 0 0  
Month to date cooling degree days 0 0  
Year to date cooling degree days 67 67  
Moisture  
Dew Point 28 °F    
Average Humidity 51    
Maximum Humidity 85    
Minimum Humidity 17    
Precipitation  
Precipitation 0.00 in 0.03 in 0.34 in (1993)
Month to date precipitation 0.24 0.50  
Year to date precipitation 13.10 9.76  
Sea Level Pressure  
Sea Level Pressure 29.98 in    
Wind  
Wind Speed 8 mph (South)    
Max Wind Speed 16 mph    
Max Gust Speed 20 mph    
Visibility 10 miles    
Events      
T = Trace of Precipitation, MM = Missing Value Source: NWS Daily Summary

Daily Weather History Graph

Daily Weather History Graph

Search for Another Location

Airport or City:

Trip Planner

Search our weather history database for the weather conditions in past years. The results will help you decide how hot, cold, wet, or windy it might be!

Date:

Astronomy

Oct. 18, 2014 Rise Set
Actual Time 7:17 AM MDT 6:17 PM MDT
Civil Twilight 6:49 AM MDT 6:45 PM MDT
Nautical Twilight 6:17 AM MDT 7:17 PM MDT
Astronomical Twilight 5:45 AM MDT 7:49 PM MDT
Moon 2:15 AM MDT (10/18) 3:41 PM MDT (10/18)
Length of Visible Light 11h 55m
Length of Day
10h 59m
Waning Crescent, 24% of the Moon is Illuminated
Oct 18
Waning Crescent
Oct 23
New
Oct 30
First Quarter
Nov 6
Full
Nov 14
Last Quarter

Hourly Weather History & Observations

Time (MDT) Temp. Windchill Dew Point Humidity Pressure Visibility Wind Dir Wind Speed Gust Speed Precip Events Conditions
12:53 AM 39.0 °F 32.3 °F 28.9 °F 67% 30.01 in 10.0 mi SSE 10.4 mph - N/A   Clear
1:53 AM 37.9 °F 30.5 °F 28.9 °F 70% 30.01 in 10.0 mi SSE 11.5 mph - N/A   Clear
2:53 AM 37.0 °F 29.8 °F 28.9 °F 73% 30.01 in 10.0 mi South 10.4 mph - N/A   Clear
3:53 AM 36.0 °F 28.5 °F 28.9 °F 76% 30.00 in 10.0 mi South 10.4 mph - N/A   Clear
4:53 AM 34.0 °F 26.0 °F 28.9 °F 82% 30.01 in 10.0 mi South 10.4 mph - N/A   Clear
5:53 AM 33.1 °F 24.4 °F 28.0 °F 82% 30.04 in 10.0 mi South 11.5 mph - N/A   Clear
6:53 AM 32.0 °F 23.0 °F 28.0 °F 85% 30.10 in 10.0 mi South 11.5 mph - N/A   Clear
7:53 AM 37.0 °F 31.0 °F 28.9 °F 73% 30.09 in 10.0 mi South 8.1 mph - N/A   Clear
8:53 AM 44.1 °F 39.5 °F 30.0 °F 58% 30.07 in 10.0 mi South 8.1 mph - N/A   Clear
9:53 AM 53.1 °F - 30.0 °F 41% 30.01 in 10.0 mi South 8.1 mph - N/A   Clear
10:53 AM 61.0 °F - 28.0 °F 29% 29.96 in 10.0 mi SW 13.8 mph - N/A   Clear
11:53 AM 64.0 °F - 25.0 °F 23% 29.94 in 10.0 mi SW 8.1 mph - N/A   Clear
12:53 PM 66.0 °F - 23.0 °F 20% 29.91 in 10.0 mi West 6.9 mph - N/A   Clear
1:53 PM 68.0 °F - 23.0 °F 18% 29.89 in 10.0 mi North 5.8 mph - N/A   Clear
2:53 PM 68.0 °F - 27.0 °F 21% 29.88 in 10.0 mi North - - N/A   Clear
3:53 PM 66.0 °F - 27.0 °F 23% 29.91 in 10.0 mi North 11.5 mph - N/A   Clear
4:53 PM 64.9 °F - 28.0 °F 25% 29.91 in 10.0 mi NNE 9.2 mph - N/A   Clear
5:53 PM 61.0 °F - 28.9 °F 30% 29.94 in 10.0 mi NNE 8.1 mph - N/A   Partly Cloudy
6:53 PM 55.9 °F - 30.0 °F 37% 29.99 in 10.0 mi East 5.8 mph - N/A   Mostly Cloudy
7:53 PM 55.0 °F - 28.9 °F 37% 29.99 in 10.0 mi NNE 5.8 mph - N/A   Partly Cloudy
8:53 PM 48.9 °F - 28.9 °F 46% 29.98 in 10.0 mi NE 5.8 mph - N/A   Clear
9:53 PM 42.1 °F 40.2 °F 28.0 °F 58% 29.99 in 10.0 mi WNW 3.5 mph - N/A   Clear
10:53 PM 41.0 °F 37.1 °F 30.0 °F 65% 29.96 in 10.0 mi SSW 5.8 mph - N/A   Clear
11:53 PM 39.0 °F 34.8 °F 33.1 °F 79% 29.94 in 10.0 mi South 5.8 mph - N/A   Clear